{"data":{"norad_id":68353,"epoch":"2026-09-18T16:30:22.230720Z","epoch_age_seconds":228835,"freshness":"STALE","line1":"1 68353U 26060D   26261.68775730  .00000289  00000+0  19838-3 0  9999","line2":"2 68353  54.9802  33.1365 0007772 273.5889  86.4198 14.22571610 26273","mean_motion":14.2257161,"eccentricity":0.0007772,"inclination_deg":54.9802,"raan_deg":33.1365,"arg_perigee_deg":273.5889,"mean_anomaly_deg":86.4198,"bstar":0.00019838,"rev_number":2627,"period_min":101.22513270176,"perigee_km":811.07711326006,"apogee_km":822.26071957654,"semimajor_km":7194.8059164183,"source":"CELESTRAK","updated_at":"2026-09-20T09:00:24.158848Z"}}